Lid_Strength_Index
11 11 11 11 11 11 12 12 12 12 12 12 12 12 11 11 11 12 12 12 12 12 12 11 11 10 9 9 8 8 8 8 9 9 8 7 8 7 7 6 7 6 5
11 11 12 12 12 13 13 13 13 13 13 12 12 12 12 12 13 13 13 12 13 13 12 12 12 11 11 10 10 10 10 10 10 11 10 9 9 8 7 7 6 5 6
12 12 13 14 14 14 14 14 13 13 13 13 13 13 13 13 13 13 13 13 13 13 13 13 12 12 13 12 12 12 11 11 11 11 12 10 10 8 8 7 7 7 7
13 14 14 14 14 14 14 14 14 14 14 14 14 14 14 14 14 13 13 13 13 13 13 13 13 13 13 13 12 12 11 12 11 12 11 11 10 9 8 9 9 8 8
14 15 15 15 14 14 15 15 15 16 15 15 15 15 15 15 14 14 14 14 14 14 13 13 13 13 12 11 12 12 11 11 11 11 11 11 11 10 10 9 9 9 8
15 15 14 15 15 16 16 16 16 16 16 16 16 17 16 15 13 12 13 14 13 14 14 14 13 13 12 11 10 10 9 11 11 11 11 12 11 10 9 10 10 10 11
16 15 16 16 16 16 17 17 17 17 17 17 17 17 16 16 13 12 12 13 13 13 13 13 13 12 12 11 10 9 9 9 8 10 11 11 11 9 9 10 9 9 10
15 16 16 17 17 18 18 18 18 18 18 18 17 17 17 16 13 12 12 13 13 13 13 12 12 12 11 11 10 10 10 10 10 10 9 9 8 8 7 8 9 9 8
16 17 17 18 19 20 21 20 19 19 19 19 17 19 19 17 14 12 13 13 13 13 12 11 11 11 10 9 10 11 11 11 9 8 7 6 5 5 6 8 9 9 9
17 18 18 19 21 22 20 21 20 21 19 18 18 19 19 19 15 13 12 13 13 12 11 11 10 10 9 9 10 11 12 11 10 9 8 7 7 9 8 10 11 11 12
18 19 20 21 22 22 22 22 24 24 21 24 22 22 21 19 17 12 11 12 12 11 11 11 10 9 9 9 8 10 9 9 9 8 11 12 12 12 11 12 12 12 14
20 21 22 24 23 22 27 27 27 28 27 25 25 23 20 18 14 12 11 10 10 11 11 11 10 9 9 8 8 7 7 7 11 13 16 14 14 12 11 11 11 12 12
23 25 25 26 25 25 28 27 26 28 28 25 23 22 20 16 16 12 11 10 9 10 10 9 9 9 8 9 8 7 8 7 9 14 12 13 10 10 10 10 10 11 12
25 25 26 27 26 27 23 23 27 28 27 24 22 20 18 17 16 14 13 11 10 10 9 10 10 9 8 8 9 8 8 8 8 11 13 11 10 12 12 11 13 12 15
26 25 25 26 28 26 24 25 23 21 21 21 18 16 16 16 15 10 11 12 11 10 9 18 17 16 14 11 10 11 10 11 11 10 10 11 13 12 11 12 13 15 16
25 25 25 26 26 25 25 24 18 16 14 13 13 13 12 11 10 11 11 11 10 9 12 18 18 16 14 12 13 13 12 13 12 12 12 12 12 12 14 14 16 18 20
26 26 27 25 26 26 25 25 26 21 16 14 13 12 12 12 12 11 11 11 10 13 19 20 18 15 14 14 14 15 15 15 14 14 14 15 14 15 15 16 16 18 20
31 27 29 28 28 28 27 27 27 27 26 22 16 13 14 13 12 12 12 14 18 18 20 20 19 17 16 15 15 15 16 16 16 16 17 18 18 19 20 19 18 20 22
30 30 29 30 29 28 28 27 26 25 24 22 23 18 20 15 14 15 15 25 25 24 23 21 20 19 18 17 17 17 18 18 18 19 21 23 23 23 24 24 22 21 22
33 28 29 30 29 28 27 26 25 25 23 22 25 25 26 25 27 28 28 26 25 25 24 24 24 24 21 21 20 20 21 21 21 22 23 25 26 27 25 27 27 25 27
29 30 27 28 29 28 27 25 24 24 25 25 26 24 14 24 28 28 28 25 22 22 23 24 25 24 22 22 23 22 23 24 25 24 27 30 32 30 30 27 28 29 29
28 28 29 27 28 27 27 25 27 27 26 26 26 25 15 25 26 26 23 22 21 20 21 21 21 21 22 22 22 23 24 25 25 26 28 32 33 33 31 31 31 30 30
28 28 28 29 28 26 27 30 28 28 28 29 27 26 27 28 27 25 23 22 20 20 20 19 20 20 21 22 22 22 23 24 24 30 32 33 34 34 34 32 32 31 31
27 26 26 27 29 29 30 30 29 28 28 29 30 29 27 27 28 26 24 21 21 23 21 19 19 20 20 21 22 23 24 25 26 29 31 32 33 35 34 35 33 32 31
28 27 28 29 30 30 30 29 28 29 30 29 29 29 28 28 27 27 24 22 21 21 20 19 19 20 21 21 22 23 24 22 25 29 35 35 33 36 36 36 35 33 31
30 30 30 30 28 26 26 26 26 27 28 28 28 28 27 26 26 26 24 21 21 20 19 19 20 21 21 21 22 22 22 20 22 25 28 31 32 34 36 34 35 34 32